sat.trackr.live / text

‹ back to catalog

STARLINK-35542

NORAD 66064 · 2025-235G

PAYLOAD ACTIVE UNKNOWN

§ Identity

Operator
Country
US
Launch date
2025-10-19
Launch site
AFETR
Launch vehicle
Mass (kg)
RCS (m²)

Purposes: comms

External: N2YO · Heavens-Above · Gunter

§ Orbital elements

Epoch: 2026-09-19T23:07:22.352160Z

Period
93.85 min
Inclination
53.1604°
Eccentricity
0.0001326
Mean motion
15.34405765 rev/d
Perigee alt
461.8 km
Apogee alt
463.6 km
Semi-major
6,840.8 km
B*
5.4432e-4
RAAN
62.3289°
Arg perigee
76.4808°
Mean anomaly
283.6343°
Rev number
5,267

§ Raw data

STARLINK-355421 66064U 25235G   26262.96345315  .00018062  00000+0  54432-3 0  99902 66064  53.1604  62.3289 0001326  76.4808 283.6343 15.34405765 52677

JSON: /api/v1/satellites/66064 · /tle

For live sub-satellite position, see the globe view (requires WebGL).

§ Visibility from observer

Set your observer location to see the next 7 days of passes ≥ 10°. The values pass through the URL so the page stays shareable.

No JS? Fill the form by hand. The geolocation button needs JavaScript.